Weather History for Pawtucket, RI

Change the Weather History Date:

Friday, March 22, 2013

  Actual Average Record
Temperature  
Mean Temperature 32 °F -  
Max Temperature 39 °F 45 °F 80 °F (2012)
Min Temperature 24 °F 28 °F 15 °F (2002)
Degree Days  
Heating Degree Days 34    
Moisture  
Dew Point 16 °F    
Average Humidity 51    
Maximum Humidity 64    
Minimum Humidity 39    
Precipitation  
Precipitation 0.00 in - - ()
Sea Level Pressure  
Sea Level Pressure 29.67 in    
Wind  
Wind Speed 10 mph (WNW)    
Max Wind Speed 17 mph    
Max Gust Speed 25 mph    
Visibility 10 miles    
Events      
Averages and records for this station are not official NWS values.
T = Trace of Precipitation, MM = Missing Value Source: NWS Daily Summary

Daily Weather History Graph

Daily Weather History Graph

Search for Another Location

Airport:

Trip Planner

Search our weather history database for the weather conditions in past years. The results will help you decide how hot, cold, wet, or windy it might be!

Date:

Astronomy

Mar. 22, 2013 Rise Set
Actual Time 6:45 AM EDT 7:00 PM EDT
Civil Twilight 6:17 AM EDT 7:28 PM EDT
Nautical Twilight 5:44 AM EDT 8:01 PM EDT
Astronomical Twilight 5:11 AM EDT 8:34 PM EDT
Moon 2:21 PM EDT (3/22) 3:48 AM EDT (3/22)
Length of Visible Light 13h 10m
Length of Day
12h 15m
Waxing Gibbous, 77% of the Moon is Illuminated
Mar 22
Waxing Gibbous
Mar 27
Full
Apr 3
Last Quarter
Apr 10
New
Apr 18
First Quarter

Hourly Weather History & Observations

Time (EDT) Temp. Windchill Dew Point Humidity Pressure Visibility Wind Dir Wind Speed Gust Speed Precip Events Conditions
12:15 AM 30.2 °F 21.9 °F 19.4 °F 64% 29.61 in 10.0 mi WNW 9.2 mph - N/A   Clear
12:35 AM 30.2 °F 21.9 °F 17.6 °F 60% 29.62 in 10.0 mi WNW 9.2 mph - N/A   Clear
12:56 AM 30.2 °F 21.9 °F 15.8 °F 55% 29.62 in 10.0 mi WNW 9.2 mph - N/A   Clear
1:35 AM 30.2 °F 20.8 °F 14.0 °F 51% 29.62 in 10.0 mi WNW 11.5 mph - N/A   Mostly Cloudy
1:55 AM 30.2 °F 21.9 °F 14.0 °F 51% 29.62 in 10.0 mi WNW 9.2 mph 17.3 mph N/A   Mostly Cloudy
2:15 AM 28.4 °F 18.0 °F 14.0 °F 55% 29.62 in 10.0 mi WNW 12.7 mph 19.6 mph N/A   Scattered Clouds
2:35 AM 28.4 °F 18.5 °F 15.8 °F 59% 29.62 in 10.0 mi WNW 11.5 mph - N/A   Mostly Cloudy
2:55 AM 28.4 °F 17.5 °F 14.0 °F 55% 29.62 in 10.0 mi WNW 13.8 mph - N/A   Scattered Clouds
3:15 AM 28.4 °F 20.4 °F 15.8 °F 59% 29.62 in 10.0 mi NW 8.1 mph - N/A   Clear
3:55 AM 28.4 °F 19.1 °F 15.8 °F 59% 29.61 in 10.0 mi NW 10.4 mph - N/A   Clear
4:15 AM 28.4 °F 20.4 °F 15.8 °F 59% 29.61 in 10.0 mi West 8.1 mph - N/A   Clear
4:35 AM 28.4 °F 18.5 °F 15.8 °F 59% 29.61 in 10.0 mi WNW 11.5 mph - N/A   Clear
4:55 AM 28.4 °F 20.4 °F 14.0 °F 55% 29.61 in 10.0 mi WNW 8.1 mph - N/A   Clear
5:15 AM 26.6 °F 19.1 °F 14.0 °F 59% 29.61 in 10.0 mi NW 6.9 mph - N/A   Clear
5:35 AM 26.6 °F 18.2 °F 12.2 °F 55% 29.62 in 10.0 mi NW 8.1 mph - N/A   Clear
6:15 AM 26.6 °F 19.1 °F 12.2 °F 55% 29.63 in 10.0 mi WNW 6.9 mph - N/A   Clear
6:35 AM 24.8 °F 16.1 °F 12.2 °F 59% 29.64 in 10.0 mi WNW 8.1 mph - N/A   Partly Cloudy
6:55 AM 24.8 °F 16.1 °F 12.2 °F 59% 29.64 in 10.0 mi WNW 8.1 mph - N/A   Clear
7:15 AM 24.8 °F 16.1 °F 12.2 °F 59% 29.65 in 10.0 mi WNW 8.1 mph - N/A   Clear
7:55 AM 26.6 °F 17.5 °F 14.0 °F 59% 29.66 in 10.0 mi WNW 9.2 mph - N/A   Clear
8:15 AM 26.6 °F 16.8 °F 12.2 °F 55% 29.67 in 10.0 mi WNW 10.4 mph - N/A   Clear
8:35 AM 28.4 °F 19.7 °F 12.2 °F 51% 29.67 in 10.0 mi NW 9.2 mph - N/A   Clear
9:15 AM 30.2 °F 20.8 °F 12.2 °F 47% 29.68 in 10.0 mi NW 11.5 mph 20.7 mph N/A   Clear
9:35 AM 30.2 °F 21.9 °F 14.0 °F 51% 29.68 in 10.0 mi WNW 9.2 mph - N/A   Clear
9:55 AM 32.0 °F 23.6 °F 12.2 °F 44% 29.68 in 10.0 mi WNW 10.4 mph - N/A   Clear
10:15 AM 33.8 °F 27.0 °F 14.0 °F 44% 29.68 in 10.0 mi WNW 8.1 mph 16.1 mph N/A   Clear
10:35 AM 33.8 °F 24.8 °F 12.2 °F 41% 29.68 in 10.0 mi WNW 12.7 mph 17.3 mph N/A   Clear
10:55 AM 33.8 °F 26.4 °F 14.0 °F 44% 29.68 in 10.0 mi WNW 9.2 mph 17.3 mph N/A   Clear
11:15 AM 35.6 °F 29.9 °F 15.8 °F 44% 29.68 in 10.0 mi West 6.9 mph 16.1 mph N/A   Clear
11:55 AM 35.6 °F 27.1 °F 15.8 °F 44% 29.68 in 10.0 mi NW 12.7 mph - N/A   Clear
12:15 PM 35.6 °F 27.5 °F 15.8 °F 44% 29.68 in 10.0 mi West 11.5 mph 18.4 mph N/A   Scattered Clouds
12:35 PM 37.4 °F 29.8 °F 15.8 °F 41% 29.68 in 10.0 mi West 11.5 mph 19.6 mph N/A   Mostly Cloudy
12:55 PM 37.4 °F 29.3 °F 17.6 °F 45% 29.68 in 10.0 mi WNW 12.7 mph 23.0 mph N/A   Scattered Clouds
1:15 PM 37.4 °F 30.3 °F 15.8 °F 41% 29.67 in 10.0 mi WNW 10.4 mph - N/A   Partly Cloudy
1:35 PM 39.2 °F 30.8 °F 17.6 °F 42% 29.67 in 10.0 mi West 15.0 mph 21.9 mph N/A   Mostly Cloudy
1:55 PM 37.4 °F 29.3 °F 15.8 °F 41% 29.67 in 10.0 mi West 12.7 mph 19.6 mph N/A   Mostly Cloudy
2:15 PM 37.4 °F 28.9 °F 15.8 °F 41% 29.67 in 10.0 mi WNW 13.8 mph 23.0 mph N/A   Mostly Cloudy
2:55 PM 39.2 °F 31.2 °F 17.6 °F 42% 29.66 in 10.0 mi West 13.8 mph 21.9 mph N/A   Mostly Cloudy
3:15 PM 39.2 °F 30.8 °F 15.8 °F 39% 29.65 in 10.0 mi West 15.0 mph 21.9 mph N/A   Mostly Cloudy
3:35 PM 37.4 °F 29.8 °F 15.8 °F 41% 29.66 in 10.0 mi West 11.5 mph 16.1 mph N/A   Scattered Clouds
3:55 PM 35.6 °F 27.1 °F 15.8 °F 44% 29.66 in 10.0 mi WNW 12.7 mph 17.3 mph N/A   Mostly Cloudy
4:15 PM 37.4 °F 30.8 °F 15.8 °F 41% 29.67 in 10.0 mi WNW 9.2 mph 21.9 mph N/A   Mostly Cloudy
4:35 PM 39.2 °F 33.6 °F 17.6 °F 42% 29.66 in 10.0 mi West 8.1 mph 20.7 mph N/A   Mostly Cloudy
4:55 PM 37.4 °F 29.3 °F 15.8 °F 41% 29.67 in 10.0 mi West 12.7 mph 21.9 mph N/A   Mostly Cloudy
5:16 PM 37.4 °F 28.5 °F 15.8 °F 41% 29.67 in 10.0 mi West 15.0 mph 18.4 mph N/A   Overcast
5:55 PM 35.6 °F 26.6 °F 17.6 °F 48% 29.69 in 10.0 mi WNW 13.8 mph 17.3 mph N/A   Scattered Clouds
6:15 PM 35.6 °F 26.6 °F 17.6 °F 48% 29.69 in 10.0 mi West 13.8 mph 21.9 mph N/A   Scattered Clouds
6:35 PM 35.6 °F 27.5 °F 17.6 °F 48% 29.70 in 10.0 mi WNW 11.5 mph - N/A   Mostly Cloudy
6:55 PM 35.6 °F 28.6 °F 17.6 °F 48% 29.71 in 10.0 mi West 9.2 mph 21.9 mph N/A   Scattered Clouds
7:15 PM 35.6 °F 28.6 °F 17.6 °F 48% 29.72 in 10.0 mi WNW 9.2 mph - N/A   Scattered Clouds
7:35 PM 33.8 °F 25.8 °F 17.6 °F 52% 29.72 in 10.0 mi WNW 10.4 mph 19.6 mph N/A   Scattered Clouds
7:55 PM 33.8 °F 26.4 °F 19.4 °F 56% 29.73 in 10.0 mi WNW 9.2 mph - N/A   Partly Cloudy
8:15 PM 33.8 °F 27.0 °F 19.4 °F 56% 29.73 in 10.0 mi West 8.1 mph 16.1 mph N/A   Clear
8:55 PM 33.8 °F 24.8 °F 19.4 °F 56% 29.74 in 10.0 mi West 12.7 mph 19.6 mph N/A   Mostly Cloudy
9:15 PM 33.8 °F 24.8 °F 19.4 °F 56% 29.74 in 10.0 mi West 12.7 mph 17.3 mph N/A   Overcast
9:35 PM 33.8 °F 24.3 °F 19.4 °F 56% 29.74 in 10.0 mi West 13.8 mph 18.4 mph N/A   Overcast
10:15 PM 32.0 °F 20.8 °F 17.6 °F 55% 29.75 in 10.0 mi West 17.3 mph 25.3 mph N/A   Partly Cloudy
10:35 PM 30.2 °F 18.9 °F 15.8 °F 55% 29.76 in 10.0 mi West 16.1 mph 21.9 mph N/A   Clear
10:55 PM 30.2 °F 20.8 °F 15.8 °F 55% 29.76 in 10.0 mi West 11.5 mph 19.6 mph N/A   Clear
11:15 PM 30.2 °F 19.3 °F 15.8 °F 55% 29.75 in 10.0 mi West 15.0 mph 25.3 mph N/A   Clear
11:35 PM 30.2 °F 20.2 °F 15.8 °F 55% 29.76 in 10.0 mi West 12.7 mph 20.7 mph N/A   Clear
11:55 PM 30.2 °F 19.8 °F 15.8 °F 55% 29.76 in 10.0 mi WNW 13.8 mph 24.2 mph N/A   Clear